#timestamp,LO_Frequency,Hit,StdDev 
1661234415.1,286047001.0,N
1661234435.9,286047000.9,N
1661234455.7,286046998.6,N
1661234475.6,286046998.8,N
1661234495.4,286047000.9,N
1661234515.2,286047000.5,N
1661234535.1,286047002.5,N
1661234536.0,286047002.5,N
1661234555.8,286047001.9,N
1661234575.7,286047002.4,N
1661234595.5,286047001.7,N
1661234615.3,286047004.3,N
1661234635.2,286047002.1,N
1661234655.0,286047000.0,N
1661234655.9,286047000.0,N
1661234675.7,286047005.9,Y
1661234695.6,286047005.9,P
1661234715.4,286047003.1,N
1661234735.3,286047003.2,N
1661234755.1,286047004.5,N
1661234756.0,286047004.5,N
1661234775.8,286047006.0,Y
1661234795.7,286046998.7,P
1661234815.5,286046999.3,N
1661234835.4,286046997.0,N
1661234855.2,286046996.8,N
1661234875.0,286046997.6,N
1661234875.9,286046997.6,N
1661234895.8,286046995.6,N
1661234915.6,286046998.3,N
1661234935.4,286046998.4,N
1661234955.3,286047002.0,N
1661234975.1,286047004.9,N
1661234995.9,286047002.9,N
1661235015.7,286047005.6,N
1661235035.5,286047001.7,N
1661235055.4,286047004.2,N
1661235075.2,286047001.5,N
1661235095.0,286047000.3,N
1661235095.9,286047000.3,N
1661235115.8,286047000.7,N
1661235135.6,286047004.0,N
1661235155.5,286047004.1,N
1661235175.3,286047002.7,N
1661235195.1,286047001.0,N
1661235215.9,286047000.5,N
1661235235.7,286047002.8,N
1661235255.5,286047000.6,N
1661235275.4,286047000.6,N
1661235295.2,286046999.9,N
1661235315.1,286047000.9,N
1661235316.0,286047000.9,N
1661235335.8,286047000.7,N
1661235355.6,286047002.6,N
1661235375.5,286047001.5,N
1661235395.3,286047002.5,N
1661235415.1,286047000.3,N
1661235435.9,286047000.9,N
1661235455.7,286047001.2,N
1661235475.6,286046998.4,N
1661235495.4,286046999.1,N
1661235515.2,286047002.8,N
1661235535.1,286047002.4,N
1661235536.0,286047002.4,N
1661235555.8,286047000.6,N
1661235575.7,286047000.9,N
1661235595.5,286047000.9,N
1661235615.3,286046998.6,N
1661235635.2,286046998.1,N
1661235655.9,286046998.2,N
1661235675.7,286047002.4,N
1661235695.6,286046998.7,N
1661235715.4,286047001.0,N
1661235735.3,286047001.1,N
1661235755.1,286047002.7,N
1661235756.0,286047002.7,N
1661235775.8,286047000.7,N
1661235795.7,286047001.0,N
1661235815.5,286047001.1,N
1661235835.3,286047000.9,N
1661235855.2,286046999.2,N
1661235875.0,286046999.9,N
1661235875.9,286046999.9,N
1661235895.8,286046998.1,N
1661235915.6,286047000.4,N
1661235935.4,286047000.3,N
1661235955.3,286047000.8,N
1661235975.1,286047001.6,N
1661235995.8,286047001.7,N
1661236015.7,286046998.8,N
1661236035.5,286046998.3,N
1661236055.4,286046999.3,N
1661236075.2,286046999.1,N
1661236095.0,286046996.6,N
1661236095.9,286046996.6,N
1661236115.8,286046999.4,N
1661236135.6,286046999.3,N
1661236155.4,286046999.2,N
1661236175.3,286046999.5,N
1661236195.1,286046996.8,N
1661236215.9,286046998.4,N
1661236235.7,286046998.3,N
1661236255.5,286046999.4,N
1661236275.4,286047001.2,N
1661236295.2,286046999.4,N
1661236315.0,286047000.4,N
1661236315.9,286047000.4,N
1661236335.8,286047001.9,N
1661236355.6,286047001.3,N
1661236375.5,286047001.7,N
1661236395.3,286047001.5,N
1661236415.1,286047002.3,N
1661236435.9,286047000.1,N
1661236455.7,286047000.3,N
1661236475.5,286046998.3,N
1661236495.4,286046999.3,N
1661236515.2,286046999.1,N
1661236535.1,286046996.8,N
1661236536.0,286046996.8,N
1661236555.8,286046998.3,N
1661236575.6,286047000.9,N
1661236595.5,286046998.5,N
1661236615.3,286046998.1,N
1661236635.2,286047000.4,N
1661236655.9,286047001.8,N
1661236675.7,286047005.5,Y
1661236695.6,286047004.0,P
1661236715.4,286047001.4,N
1661236735.2,286047001.4,N
1661236755.1,286047004.2,N
1661236756.0,286047004.2,N
1661236775.8,286047001.9,N
1661236795.7,286047002.6,N
1661236815.5,286047000.4,N
1661236835.3,286047000.6,N
1661236855.2,286046999.8,N
1661236875.0,286047003.8,N
1661236875.9,286047003.8,N
1661236895.7,286047001.4,N
1661236915.6,286047001.8,N
1661236935.4,286047002.6,N
1661236955.3,286047000.1,N
1661236975.1,286047002.8,N
1661236976.0,286047002.8,N
1661236995.8,286047000.0,N
1661237015.7,286046998.7,N
1661237035.5,286047001.0,N
1661237055.3,286047003.1,N
1661237075.2,286047005.6,Y
1661237095.0,286047003.7,P
1661237095.9,286047003.7,P
1661237115.8,286047003.7,P
1661237135.6,286047002.2,N
1661237155.4,286047003.6,Y
1661237175.3,286047000.6,P
1661237195.1,286047001.1,N
1661237215.9,286046998.1,N
1661237235.7,286046998.6,N
1661237255.5,286047000.8,N
1661237275.4,286047002.4,N
1661237295.2,286047002.1,N
1661237315.1,286047007.6,Y
1661237316.0,286047007.6,P
1661237335.8,286047005.8,N
1661237355.6,286047004.0,N
1661237375.5,286047000.4,N
1661237395.3,286046998.7,N
1661237415.1,286046997.3,N
1661237435.9,286046997.2,N
1661237455.7,286046997.0,N
1661237475.6,286046997.4,N
1661237495.4,286046997.0,N
1661237515.2,286046999.4,N
1661237535.1,286046998.5,N
1661237536.0,286046998.5,N
1661237555.8,286046999.3,N
1661237575.6,286046997.1,N
1661237595.5,286046997.8,N
1661237615.3,286046995.8,N
1661237635.2,286046996.3,N
1661237655.9,286046993.4,N
1661237675.7,286046995.5,N
1661237695.6,286046997.7,N
1661237715.4,286046996.5,N
1661237735.2,286047001.2,N
1661237755.1,286046998.2,N
1661237756.0,286046998.2,N
1661237775.8,286047000.8,N
1661237795.7,286046998.2,N
1661237815.5,286046998.6,N
1661237835.3,286046997.1,N
1661237855.2,286046999.0,N
1661237875.0,286046996.7,N
1661237875.9,286046996.7,N
1661237895.7,286046996.8,N
1661237915.6,286046997.7,N
1661237935.4,286046997.7,N
1661237955.3,286046997.0,N
1661237975.1,286046998.0,N
1661237995.8,286046997.8,N
